sat.trackr.live / text

‹ back to catalog

STARLINK-31948

NORAD 59941 · 2024-106V

PAYLOAD ACTIVE UNKNOWN

§ Identity

Operator
Country
US
Launch date
2024-06-01
Launch site
AFETR
Launch vehicle
Mass (kg)
RCS (m²)

Purposes: comms

External: N2YO · Heavens-Above · Gunter

§ Orbital elements

Epoch: 2026-05-25T00:35:27.940416Z

Period
94.27 min
Inclination
43.0041°
Eccentricity
0.0002727
Mean motion
15.27584059 rev/d
Perigee alt
481.2 km
Apogee alt
484.9 km
Semi-major
6,861.2 km
B*
-4.5960e-5
RAAN
258.1737°
Arg perigee
272.9360°
Mean anomaly
87.1179°
Rev number
11,223

§ Raw data

STARLINK-319481 59941U 24106V   26145.02462894 -.00001527  00000+0 -45960-4 0  99982 59941  43.0041 258.1737 0002727 272.9360  87.1179 15.27584059112230

JSON: /api/v1/satellites/59941 · /tle

For live sub-satellite position, see the globe view (requires WebGL).

§ Visibility from observer

Set your observer location to see the next 7 days of passes ≥ 10°. The values pass through the URL so the page stays shareable.

No JS? Fill the form by hand. The geolocation button needs JavaScript.